EHI
4 2 0 0 0 0 0 0 0 0 0 0 0 0 0 0 0 0 0 0 0 0 0 1 2 2 3 4 4 3 2 1 0 0 0 0 0 0 0 0 0 0 0 0 1 1 1 0 0
2 1 0 0 0 0 0 0 0 0 0 0 0 0 0 0 0 0 0 0 0 0 0 0 1 2 2 3 3 4 2 1 0 0 0 0 0 0 0 0 0 0 0 0 0 0 0 0 0
0 0 0 0 0 0 0 0 0 0 0 0 0 0 0 0 0 0 0 0 0 0 0 1 2 2 2 2 3 3 1 1 0 0 0 0 0 0 0 0 0 0 0 0 0 0 0 0 0
0 0 0 0 0 0 0 0 0 0 0 0 0 0 0 0 0 0 0 0 0 0 0 1 4 4 4 3 2 1 0 0 0 0 0 0 0 0 0 0 0 0 0 0 0 0 0 0 0
0 0 0 0 0 0 0 0 0 0 0 0 1 1 1 0 0 0 0 0 0 0 0 1 4 5 5 3 1 0 0 0 0 0 0 0 0 0 0 0 0 0 0 0 0 0 0 0 0
0 0 0 0 0 0 0 0 1 0 0 0 1 2 1 0 0 0 0 0 0 0 0 0 2 3 3 2 1 0 0 0 0 0 0 0 0 0 0 0 0 0 0 0 0 0 0 0 0
0 0 0 0 0 0 0 0 0 0 0 0 1 1 0 0 0 0 0 0 0 0 0 0 0 1 2 2 1 0 0 0 0 0 0 0 0 0 0 0 0 0 0 0 0 0 0 0 0
0 0 0 0 0 0 0 0 0 0 0 0 0 1 0 0 0 0 1 2 1 0 0 0 0 0 1 1 1 0 0 0 0 0 0 0 0 0 0 0 0 0 0 0 0 0 0 0 0
0 0 0 0 0 0 0 0 0 0 0 0 0 1 2 2 2 2 2 3 2 1 0 0 0 0 0 0 0 0 0 0 0 0 0 0 0 0 0 0 0 0 0 0 0 0 0 0 0
0 0 0 0 0 0 0 0 0 0 0 0 1 4 7 6 4 3 2 2 2 1 0 0 0 0 0 0 0 0 0 0 0 0 0 0 0 0 0 0 0 0 0 0 0 0 0 0 0
0 0 0 0 1 1 1 0 1 1 1 1 5 11 13 9 5 3 1 1 1 1 0 0 0 0 0 0 0 0 0 0 0 0 0 0 0 0 0 0 0 0 0 0 0 0 0 0 0
0 0 0 0 1 1 1 0 1 2 1 2 9 17 17 11 5 2 1 0 0 0 0 0 0 0 0 0 0 0 0 0 0 0 0 0 0 0 0 0 0 0 0 0 0 0 0 0 0
0 0 0 0 0 0 0 1 2 3 3 5 11 17 17 11 6 2 0 0 0 0 0 0 0 0 0 0 0 0 0 0 0 0 0 0 0 0 0 0 0 0 0 0 0 0 0 0 0
0 0 0 0 0 0 1 2 3 3 5 8 12 15 15 12 7 4 3 2 1 0 0 0 0 0 0 0 0 0 0 0 0 0 0 0 0 0 0 0 0 0 0 0 0 0 0 0 0
0 0 0 0 0 0 1 2 3 4 7 10 12 13 13 11 7 6 7 6 3 1 0 0 0 0 0 0 0 0 0 0 0 0 0 0 0 0 0 0 0 0 0 0 0 0 0 0 0
0 0 0 0 0 0 1 1 3 5 8 9 10 10 10 9 7 7 9 8 4 2 1 1 2 2 1 1 1 1 1 1 0 0 0 0 0 0 0 0 0 0 0 0 0 0 0 0 0
0 0 0 0 0 0 0 1 3 6 8 8 7 8 8 8 7 8 11 11 8 5 3 3 4 4 3 3 3 3 2 1 0 0 0 0 0 0 0 0 0 0 0 0 0 0 0 0 0
0 0 0 0 0 0 0 1 4 7 7 5 5 8 9 9 8 10 13 13 12 9 6 5 5 5 5 5 5 3 1 1 0 0 0 0 0 0 0 0 0 0 0 0 0 0 0 0 0
0 0 0 0 0 0 0 2 4 6 5 3 4 9 12 11 10 11 14 16 15 11 8 7 7 6 6 6 5 2 0 0 0 0 0 0 0 0 0 0 0 0 0 0 0 0 0 0 0
0 0 0 0 0 0 0 2 4 4 3 2 4 9 13 13 12 13 15 17 17 14 11 10 9 8 6 5 4 1 0 0 0 0 0 0 0 0 0 0 0 0 0 0 0 0 0 0 0
0 0 0 0 0 0 0 1 2 2 2 2 4 9 14 15 16 17 19 21 19 15 13 12 11 9 7 6 4 3 2 1 0 0 0 0 0 0 0 0 0 0 0 0 0 0 0 0 0
0 0 0 0 0 0 0 0 0 1 2 3 5 10 16 19 19 21 24 24 22 18 14 11 10 8 8 7 6 6 6 4 1 1 1 0 0 0 0 0 0 0 0 0 0 0 0 0 0
0 0 0 0 0 0 0 0 0 1 2 4 7 12 18 22 23 24 26 26 24 19 13 9 7 6 7 7 7 7 7 4 2 2 2 1 0 0 0 0 0 0 0 0 0 0 0 0 0
0 0 0 0 0 0 0 0 0 0 1 4 9 15 21 24 25 25 25 26 25 19 12 9 6 5 6 6 6 6 6 5 3 3 3 2 1 0 0 0 0 0 0 0 0 0 0 0 0
0 0 0 0 0 0 0 0 0 0 0 4 11 19 24 25 25 25 25 26 24 19 15 12 8 6 5 6 6 6 6 6 4 3 3 2 1 0 0 0 0 0 0 0 0 0 0 0 0
0 0 0 0 0 0 0 0 0 0 2 7 14 20 24 25 23 23 24 25 23 20 18 14 10 6 6 6 7 6 6 5 4 3 2 1 0 0 0 0 0 0 0 0 0 0 0 0 0
0 0 0 0 0 0 0 0 0 1 4 10 16 21 23 23 21 21 23 23 23 21 17 14 10 6 6 7 7 5 4 4 3 2 1 0 0 0 0 0 0 0 0 0 0 0 0 0 0
0 0 0 0 0 0 0 0 0 1 4 9 14 18 21 24 23 22 21 22 23 20 15 11 8 6 6 6 5 4 3 2 1 1 0 0 0 0 0 0 0 0 0 0 0 0 0 0 0
0 0 0 0 0 0 0 0 0 2 4 7 12 17 22 26 27 24 20 19 20 18 13 10 7 6 6 5 3 2 2 1 0 0 0 0 0 0 0 0 0 0 0 0 0 0 0 0 0
0 0 0 0 0 0 0 0 1 3 6 8 12 19 24 27 27 25 21 17 16 15 13 11 8 6 5 4 2 1 1 0 0 0 0 0 0 0 0 0 0 0 0 0 0 0 0 0 0
Wind_Speed
2 2 2 2 6 7 4 3 2 3 3 3 6 7 7 5 2 4 2 6 7 6 4 8 11 11 12 12 13 13 13 13 13 13 14 14 14 14 14 14 14 14 14 15 15 15 15 14 14
2 3 2 5 7 4 3 3 4 3 5 6 7 7 7 6 5 7 4 5 7 6 4 6 11 11 11 12 12 12 12 13 13 13 13 13 13 13 13 13 13 13 14 14 14 14 14 14 13
2 2 4 6 5 3 1 1 5 5 4 4 5 6 5 4 5 4 4 8 7 6 4 6 11 11 11 11 11 11 12 12 12 12 12 12 12 12 12 13 13 13 13 13 14 13 13 12 12
2 4 6 7 5 0 3 3 5 5 6 6 5 6 5 4 4 6 9 9 8 5 4 6 11 10 10 10 10 11 11 11 11 11 11 11 11 11 11 12 12 12 12 13 13 13 12 11 11
4 5 7 5 3 2 3 4 3 4 4 5 6 6 4 4 9 11 9 8 7 5 3 5 10 10 10 10 10 10 10 10 10 10 10 10 10 10 11 11 11 11 11 11 12 12 11 11 10
5 6 6 3 3 3 2 2 4 6 6 5 5 5 4 4 8 9 8 7 6 5 4 4 9 10 9 9 9 9 9 9 9 9 9 9 10 9 10 9 10 10 10 10 10 10 10 9 10
5 5 4 3 3 2 2 2 4 5 5 4 4 5 3 3 5 7 7 6 5 4 4 3 3 5 8 8 8 8 8 8 8 8 8 8 8 8 8 8 8 8 9 9 9 9 8 8 8
5 6 3 2 4 3 3 3 4 5 5 5 5 7 6 6 8 8 7 5 4 4 3 3 3 3 3 3 7 7 7 7 7 7 7 7 6 6 7 6 6 7 7 7 8 7 7 7 7
4 6 2 4 5 4 5 4 3 4 6 3 3 4 7 13 12 9 6 5 4 4 2 2 2 2 2 2 4 5 6 6 5 4 6 5 3 3 3 4 5 5 5 6 6 6 6 6 6
5 4 4 4 5 6 6 5 5 5 4 3 6 8 13 13 12 10 9 8 7 6 4 2 2 2 1 1 2 2 2 2 3 2 3 3 2 1 2 2 3 4 4 4 5 5 5 4 3
3 4 3 1 4 7 6 5 3 8 3 6 11 15 16 13 10 9 8 7 7 5 5 4 3 2 2 1 2 1 1 1 2 2 2 2 2 2 2 1 2 2 3 2 3 3 2 2 2
3 0 2 3 5 6 6 5 4 3 4 7 14 17 16 14 12 11 10 8 6 5 5 4 4 3 2 1 1 1 1 1 1 1 2 2 1 1 1 1 1 1 1 1 1 1 1 1 1
2 1 1 4 6 6 6 5 4 2 5 11 14 14 14 13 10 7 6 6 6 6 6 5 5 4 3 2 2 2 2 1 1 1 1 2 2 1 0 0 0 0 0 0 0 0 1 1 1
1 2 3 4 5 4 6 3 4 3 9 12 13 11 11 11 10 7 7 7 7 7 6 5 5 5 4 3 2 2 2 2 1 1 2 3 2 2 1 1 1 1 1 0 0 0 0 0 1
3 6 6 4 3 3 7 3 1 6 10 11 11 10 10 9 9 9 10 9 8 7 6 6 6 5 5 4 4 2 2 2 2 2 3 3 3 3 3 2 2 1 1 1 0 0 1 0 0
5 6 3 2 1 3 6 3 3 8 11 10 9 9 8 7 9 9 8 7 7 6 6 6 6 6 5 4 3 2 2 3 2 2 2 3 4 4 3 3 2 2 1 1 1 1 0 0 1
6 3 0 2 1 3 4 4 4 7 9 9 8 8 7 6 6 7 7 7 7 7 7 7 5 6 5 4 3 2 2 2 2 2 2 3 3 4 3 3 2 2 1 1 2 1 1 1 1
1 1 1 3 2 4 3 3 4 8 9 8 7 7 6 7 8 6 7 7 7 6 7 7 5 5 4 3 2 1 1 1 1 2 2 3 2 3 4 3 3 2 2 2 1 1 1 1 2
4 3 2 4 2 4 4 3 5 7 7 7 7 7 6 6 4 4 5 6 6 6 6 6 5 4 4 2 2 2 2 2 2 2 3 3 3 3 3 3 3 3 3 3 3 2 2 1 1
3 2 1 1 2 3 2 1 2 6 8 8 9 8 7 5 4 4 5 5 6 6 6 5 5 5 4 3 2 2 2 1 2 1 2 3 3 3 4 4 3 4 3 3 3 2 1 1 2
2 3 3 2 3 4 3 3 2 3 4 4 5 6 6 8 7 6 6 6 6 6 6 6 5 5 4 4 2 2 1 1 0 0 1 1 2 3 3 3 3 3 3 3 4 4 4 3 2
2 3 4 4 4 1 2 2 5 3 4 6 7 7 7 7 7 7 7 7 7 6 5 4 4 4 4 4 3 3 2 2 2 1 1 1 1 2 2 3 3 3 3 3 4 4 3 3 2
3 3 4 4 4 3 3 1 8 1 5 9 8 8 7 7 7 8 8 8 7 6 5 4 4 3 3 4 4 3 2 2 1 0 0 1 0 1 2 2 2 3 3 4 4 3 3 3 3
5 7 7 6 6 2 1 2 7 5 7 6 7 8 8 8 7 6 6 5 5 5 4 4 4 3 3 4 4 4 3 2 1 0 0 1 0 0 0 1 1 2 2 3 3 3 4 3 3
5 7 5 5 4 4 2 2 10 7 6 7 7 8 8 8 8 7 7 7 7 6 5 5 4 3 3 3 3 3 3 3 2 1 1 1 0 0 1 0 1 1 2 2 2 2 2 3 3
4 9 9 5 5 4 2 5 9 5 4 3 4 5 7 7 7 7 7 7 7 7 6 5 4 3 3 3 3 2 2 2 1 1 1 1 1 1 0 0 0 0 0 0 0 1 1 1 2
7 3 6 8 3 1 4 6 8 2 2 1 4 5 7 7 7 7 7 6 6 6 5 5 5 3 3 3 3 2 2 2 1 1 0 0 0 0 1 1 1 1 1 1 1 1 0 0 1
6 9 7 7 6 2 4 4 5 5 4 3 4 6 6 6 6 7 7 7 6 5 5 5 5 4 3 2 2 2 2 2 2 2 1 1 1 2 2 3 3 3 2 2 2 2 1 1 1
5 5 6 6 6 7 3 8 7 7 6 7 7 6 7 8 7 6 6 6 6 6 5 5 5 4 3 3 3 3 3 3 3 3 2 2 2 3 3 3 3 3 3 3 2 2 2 2 2
5 8 9 7 4 4 4 9 5 5 5 5 5 5 6 6 6 6 6 6 6 6 6 5 5 4 3 4 4 3 3 4 4 3 3 3 3 4 4 4 4 4 4 3 3 3 3 3 2
Wind_Direction
221 168 141 86 55 50 33 6 86 92 64 64 80 83 88 66 93 132 122 132 128 125 122 122 118 111 107 104 103 104 104 103 102 103 103 102 100 99 98 97 96 98 99 100 102 102 101 102 102
168 151 91 60 72 61 2 358 67 77 129 119 82 72 71 65 66 103 123 134 122 122 116 125 122 115 111 108 106 106 106 105 104 104 104 103 101 100 100 100 98 99 99 100 102 104 103 103 103
166 124 80 67 77 123 130 63 102 102 104 87 80 65 72 94 115 126 143 131 114 115 116 134 124 119 115 112 109 108 108 108 107 107 106 105 104 102 101 100 100 101 101 101 102 104 104 102 104
106 53 54 65 64 65 152 146 123 106 64 55 86 72 66 90 126 129 130 127 118 115 118 134 126 123 119 116 113 111 109 110 109 108 107 107 107 105 103 101 101 102 102 102 102 103 104 104 106
63 70 58 51 35 37 93 128 102 86 72 67 79 81 53 38 104 120 126 126 125 121 119 132 131 129 125 121 118 115 111 111 111 111 110 109 107 104 103 103 103 103 104 104 104 104 104 105 108
57 64 74 70 49 54 89 90 84 81 86 85 77 81 54 94 116 126 121 116 120 121 114 124 135 133 130 127 124 120 117 115 114 113 112 111 109 106 105 105 106 105 106 106 106 107 105 105 107
92 84 106 123 105 107 149 88 97 111 104 98 101 93 93 124 119 116 108 105 107 108 104 99 118 130 136 134 129 125 122 121 119 118 116 113 111 108 106 106 108 108 109 109 109 107 104 105 109
110 94 87 124 138 166 144 96 106 116 103 113 112 129 160 163 127 110 101 98 102 101 98 96 89 89 98 120 134 131 128 126 126 128 127 121 112 107 105 102 108 110 109 110 111 109 103 102 112
83 76 135 186 168 168 145 127 126 89 112 118 103 128 144 136 129 122 119 121 137 145 113 107 103 95 94 111 141 131 131 128 122 118 118 97 62 61 83 108 112 111 108 108 111 108 100 94 102
80 111 205 197 172 152 144 137 140 115 112 89 85 98 124 139 145 151 159 166 175 177 174 158 148 136 124 138 95 70 74 79 72 67 79 75 68 52 78 89 106 105 102 103 103 99 88 79 73
101 165 200 153 141 131 132 130 124 127 163 177 149 143 146 154 159 167 174 177 184 180 183 176 171 164 158 93 104 81 67 70 72 84 96 87 65 44 44 33 45 49 63 55 65 71 69 78 94
98 282 150 139 123 124 137 133 120 157 200 161 149 149 154 164 173 180 182 183 177 178 190 182 176 176 181 158 134 132 118 114 124 135 136 115 93 61 43 27 38 44 48 53 53 61 68 84 132
72 5 37 105 106 111 108 109 113 97 112 125 136 149 163 173 181 184 182 179 177 188 194 190 183 187 185 176 183 165 171 178 190 185 178 154 160 178 171 304 13 15 66 84 53 41 56 72 119
120 76 61 75 95 103 111 93 93 138 130 135 148 160 173 180 179 173 175 185 189 194 196 194 193 191 182 184 192 183 181 184 192 209 205 182 176 184 186 208 242 264 260 245 235 348 55 50 121
75 66 47 46 78 115 106 66 166 156 143 149 162 170 178 186 182 187 188 189 190 191 190 191 194 186 187 195 198 193 189 184 194 211 212 199 192 194 191 201 226 238 229 204 114 25 43 80 141
52 59 46 308 120 128 121 195 207 156 156 164 174 180 186 193 196 197 189 186 184 182 184 193 197 183 190 197 197 190 187 189 201 207 211 214 209 199 187 198 224 223 201 179 167 160 105 256 198
35 69 311 295 192 132 138 199 202 167 167 175 183 187 187 192 201 199 187 184 182 182 180 187 190 180 186 187 181 186 187 193 193 199 214 220 210 198 192 201 212 200 194 201 207 172 173 203 218
202 153 230 245 226 136 153 206 186 177 179 185 189 190 190 197 204 188 181 179 175 175 176 182 181 177 166 154 147 158 193 209 190 202 214 220 215 203 192 199 201 187 189 209 203 194 181 197 209
156 154 228 251 208 144 179 201 195 182 188 192 199 198 200 208 192 168 169 166 161 166 173 180 175 175 160 153 167 178 205 211 209 211 211 218 221 211 200 203 192 187 195 209 202 192 194 211 171
135 135 259 334 56 117 142 255 216 191 204 202 199 201 202 192 166 165 160 160 168 174 178 177 182 181 181 178 172 174 175 202 212 220 221 217 216 210 211 207 202 195 191 203 202 186 185 218 177
150 171 191 161 62 55 89 346 265 236 215 209 201 198 195 190 183 179 173 175 172 178 182 183 184 184 186 173 140 110 86 52 59 255 243 231 221 214 211 209 206 197 191 204 209 198 194 207 204
234 217 170 136 103 9 101 255 278 243 239 222 210 197 196 192 184 181 178 177 181 185 178 177 174 176 176 165 160 163 175 199 214 210 220 256 232 219 215 214 214 207 202 210 218 205 201 193 209
189 86 99 100 107 63 32 136 285 280 245 237 217 200 195 189 186 184 183 181 178 170 165 171 167 171 169 169 172 169 188 208 205 145 232 264 270 240 232 221 216 213 211 216 221 206 204 203 206
122 74 57 50 67 55 274 168 277 239 227 236 210 196 189 180 179 178 171 157 155 152 155 160 165 175 173 173 172 177 191 189 170 201 245 271 281 286 278 217 213 216 215 219 223 213 206 211 217
93 88 44 17 21 255 277 211 253 258 245 220 198 190 182 173 169 167 165 162 162 162 165 163 165 179 175 171 177 184 188 179 192 206 216 227 244 268 280 222 222 233 234 229 221 211 216 213 221
153 133 150 175 202 269 319 242 259 275 280 216 183 169 161 166 168 169 172 170 167 164 161 158 164 175 170 170 176 177 175 168 180 186 192 225 244 262 340 94 118 301 294 272 199 199 224 223 233
131 144 151 124 134 70 287 289 302 306 341 108 149 154 163 165 165 167 163 161 160 155 159 165 161 169 166 164 152 142 152 156 155 148 130 332 323 57 55 77 75 44 49 68 96 90 74 148 224
132 140 106 113 135 209 293 282 256 262 238 204 180 179 169 153 156 162 159 155 155 152 153 148 149 159 142 136 143 134 126 129 120 102 91 74 48 50 59 60 69 64 58 62 78 66 51 66 16
112 94 100 103 140 148 212 267 233 222 211 200 200 180 163 159 160 159 149 145 145 141 137 135 132 129 126 125 113 104 103 100 96 90 80 69 57 57 62 67 66 60 51 52 65 59 48 50 28
152 159 145 142 178 160 166 263 274 225 202 183 178 165 157 154 146 142 137 140 141 141 137 135 132 133 136 125 112 103 97 93 89 84 74 73 70 64 68 71 70 63 53 52 62 61 57 57 41